Torna al catalogo

STARLINK-4384

AttivoComunicazioniSSO
NORAD 53218·PAYLOAD·🇺🇸 United States

Lanciato Jul 22, 2022 da Vandenberg Space Force Base

Loading…

Prossimi Passaggi (prossime 24 ore)

TLE

AggiornatoSource: CelesTrak SupGP

Epoca: Sep 14, 2026, 20:45 UTC

1 53218C 22084AF  26257.86506944  .00450190  00000+0  15854-1 0  2578
2 53218  97.2845 313.6457 0001633  89.7424  37.2674 15.29144672    13

Traccia STARLINK-4384 in tempo reale con AllMySat

Download on the App Store